[[{"header":{"parameterUnit":"m.s-1","parameterCategory":1,"la1":30.2991,"la2":30.254,"lo1":-89.0895,"lo2":-89.0444,"dy":0.0017,"dx":0.0017,"nx":28,"ny":28,"refTime":"2025-07-06T09:00:00:Z","depth":0,"parameterNumber":2,"parameterNumberName":"U-component_of_WINDS"},"data":[0,0,0,0,0,0,0,0,0,0,0,0,0,0,0,0,0,0,0,0,0,0,0,0,0,0,0,0,0,0,0,0,0,0,0,0,0,0,0,0,0,0,0,0,0,0,0,0,0,0,0,0,0,0,0,0,0,0,-1.4674,-1.4674,0,-1.4657,-1.4656,-1.4656,-1.461,-1.4609,-1.4608,-1.4607,-1.4589,-1.459,-1.459,0,0,0,0,0,0,0,0,0,0,0,0,0,-1.4668,-1.4668,-1.4674,-1.4674,-1.4674,-1.4657,-1.4656,-1.4656,-1.461,-1.4609,-1.4607,-1.4606,-1.4589,-1.459,-1.459,0,0,0,0,0,0,0,0,0,0,0,0,0,-1.4663,-1.4669,-1.4674,-1.4649,-1.4646,-1.4657,-1.4656,-1.4656,-1.461,-1.4609,-1.4607,-1.4606,-1.4589,-1.459,-1.4591,-1.4625,0,0,-1.4593,-1.4593,0,0,0,0,0,0,0,0,-1.4663,-1.4663,-1.4653,-1.465,-1.4648,-1.4634,-1.4648,-1.4646,-1.461,-1.4624,-1.4607,-1.4605,-1.4605,-1.4605,-1.4605,-1.4624,-1.4623,-1.4593,-1.4593,-1.4594,-1.4594,0,0,0,0,0,0,0,-1.4664,-1.4663,-1.4667,-1.4652,-1.4649,-1.4638,-1.4636,-1.4647,-1.4623,-1.4623,-1.4619,-1.4618,-1.4604,-1.4604,-1.4604,-1.4623,-1.4593,-1.4593,-1.4594,-1.4594,-1.4669,-1.467,0,0,0,0,0,0,-1.4667,-1.4664,-1.4668,-1.4667,-1.4652,-1.4639,-1.4637,-1.464,-1.4623,-1.4619,-1.4619,-1.4615,-1.4604,-1.4603,-1.4603,-1.4641,-1.4593,-1.4594,-1.4595,-1.4667,-1.4669,-1.4671,0,0,0,0,0,0,-1.4668,-1.4668,-1.4669,-1.4664,-1.4664,-1.4641,-1.4645,-1.464,-1.464,-1.462,-1.4616,-1.4624,-1.4603,-1.4602,-1.462,-1.464,-1.4594,-1.4595,-1.4665,-1.4668,-1.467,-1.4718,0,0,0,0,0,0,-1.4668,-1.4669,-1.4681,-1.4665,-1.4664,-1.4685,-1.4646,-1.4641,-1.4642,-1.4637,-1.4624,-1.462,-1.4601,-1.4619,-1.462,-1.464,-1.4596,-1.4663,-1.4667,-1.4669,-1.4715,-1.4722,-1.4728,0,0,0,0,0,-1.4667,-1.4696,-1.4682,-1.4683,-1.4679,-1.4686,-1.4686,-1.4664,-1.4644,-1.4656,-1.4643,-1.462,-1.4638,-1.4621,-1.4622,-1.4643,-1.4662,-1.4666,-1.4669,-1.4712,-1.4721,-1.4728,0,0,0,0,0,0,-1.4715,-1.4693,-1.4678,-1.4702,-1.4696,-1.4679,-1.4694,-1.4674,-1.4674,-1.467,-1.4643,-1.464,-1.4661,-1.4654,-1.4635,-1.4675,-1.4646,-1.465,-1.4678,-1.4687,-1.4693,-1.4694,-1.4596,0,0,0,0,0,-1.4729,-1.4736,-1.4717,-1.474,-1.4738,-1.4716,-1.4719,-1.4702,-1.4695,-1.4693,-1.4681,-1.4676,-1.468,-1.4683,-1.4686,-1.4714,-1.471,-1.4729,-1.4736,-1.4741,-1.4745,-1.4758,-1.4766,-1.4682,-1.4682,-1.4682,0,0,-1.4756,-1.4745,-1.4752,-1.4749,-1.4743,-1.4751,-1.4715,-1.4725,-1.4731,-1.4694,-1.4709,-1.4701,-1.4693,-1.4716,-1.4725,-1.471,-1.4767,-1.4746,-1.475,-1.4751,-1.4762,-1.477,-1.4777,-1.4685,-1.4684,-1.4684,0,0,-1.481,-1.4803,-1.4821,-1.4816,-1.4806,-1.4792,-1.4797,-1.4782,-1.4774,-1.4789,-1.4762,-1.4769,-1.4777,-1.4772,-1.477,-1.4823,-1.4802,-1.4825,-1.4859,-1.4873,-1.4879,-1.4885,-1.4902,-1.4909,-1.4829,-1.4829,-1.4829,0,-1.4846,-1.4856,-1.4833,-1.4845,-1.4844,-1.4812,-1.4829,-1.4825,-1.4818,-1.4818,-1.4802,-1.4811,-1.4803,-1.4824,-1.4837,-1.4837,-1.4841,-1.4825,-1.488,-1.4886,-1.4891,-1.4907,-1.4914,-1.4831,-1.4831,-1.4831,-1.4831,0,-1.49,-1.4908,-1.4924,-1.4916,-1.4918,-1.4933,-1.4911,-1.4916,-1.4899,-1.4887,-1.4902,-1.4892,-1.4892,-1.4896,-1.488,-1.4914,-1.4905,-1.4885,-1.4856,-1.4902,-1.4917,-1.4923,-1.4835,-1.4834,-1.4834,-1.4833,0,0,-1.4982,-1.4962,-1.4968,-1.4964,-1.4952,-1.4958,-1.4971,-1.4971,-1.4974,-1.4971,-1.4981,-1.4989,-1.497,-1.4968,-1.4952,-1.4964,-1.5005,-1.4942,-1.4942,-1.4953,-1.504,-1.5054,-1.5061,-1.4991,-1.4992,-1.4993,-1.504,0,-1.5032,-1.5053,-1.5032,-1.5058,-1.5064,-1.5034,-1.5045,-1.5039,-1.5028,-1.5032,-1.502,-1.5025,-1.5001,-1.5,-1.501,-1.4997,-1.5021,-1.4994,-1.4999,-1.5,-1.5,-1.5069,-1.5084,-1.5129,-1.5046,-1.5047,-1.5048,0,-1.5093,-1.5091,-1.5117,-1.5102,-1.5104,-1.5115,-1.5112,-1.5117,-1.5109,-1.51,-1.5099,-1.5079,-1.5091,-1.5064,-1.5079,-1.5061,-1.5062,-1.5057,-1.5058,-1.5056,-1.5025,-1.5068,-1.5143,-1.5149,-1.5057,-1.5056,-1.5055,0,-1.5148,-1.5153,-1.5168,-1.5166,-1.515,-1.5158,-1.5152,-1.5143,-1.5144,-1.5142,-1.5142,-1.5142,-1.5142,-1.5142,-1.5123,-1.5105,-1.5141,-1.5112,-1.5133,-1.5133,-1.514,-1.514,-1.5215,-1.5144,-1.5144,-1.5144,-1.5144,0,-1.5205,-1.5222,-1.5193,-1.5203,-1.522,-1.5197,-1.5215,-1.5205,-1.5198,-1.5205,-1.5179,-1.5187,-1.5161,-1.5166,-1.5151,-1.5166,-1.5166,-1.5159,-1.5154,-1.516,-1.5161,-1.5159,-1.5155,-1.5146,-1.5145,-1.5145,-1.5145,0,-1.5269,-1.5251,-1.5266,-1.525,-1.5246,-1.526,-1.5245,-1.5254,-1.5241,-1.525,-1.5251,-1.5231,-1.5235,-1.5216,-1.5217,-1.5207,-1.5229,-1.522,-1.5231,-1.5228,-1.5249,-1.5247,-1.5324,-1.5333,-1.5259,-1.5259,-1.526,0,-1.5306,-1.5318,-1.5303,-1.5305,-1.53,-1.5305,-1.5306,-1.5283,-1.5285,-1.5277,-1.5286,-1.5288,-1.5288,-1.5296,-1.5282,-1.5282,-1.5272,-1.5299,-1.5272,-1.5277,-1.5271,-1.5269,-1.527,-1.5304,-1.5305,-1.5306,-1.5307,0,-1.5372,-1.5362,-1.5364,-1.5363,-1.5364,-1.5362,-1.5358,-1.5362,-1.5338,-1.5341,-1.5344,-1.5345,-1.5345,-1.5347,-1.5345,-1.5338,-1.5318,-1.5316,-1.532,-1.5325,-1.5331,-1.5326,-1.5245,-1.5314,-1.5313,-1.5312,-1.5312,-1.5312,-1.5423,-1.5431,-1.5422,-1.5424,-1.5419,-1.5416,-1.5422,-1.5411,-1.5413,-1.5411,-1.5399,-1.5404,-1.5396,-1.5391,-1.5386,-1.5391,-1.5378,-1.5385,-1.5386,-1.5388,-1.5391,-1.5332,-1.539,-1.539,-1.539,-1.539,-1.539,0,-1.5486,-1.5478,-1.5481,-1.5476,-1.5478,-1.546,-1.5455,-1.5457,-1.5463,-1.5457,-1.5457,-1.5461,-1.5463,-1.5449,-1.5449,-1.5455,-1.5446,-1.5455,-1.5454,-1.5452,-1.5403,-1.5398,-1.5463,-1.5463,-1.5463,-1.5463,-1.5463,-1.5463,-1.5519,-1.5532,-1.5522,-1.5532,-1.5525,-1.553,-1.5528,-1.5525,-1.552,-1.5526,-1.5527,-1.5518,-1.5508,-1.5507,-1.5508,-1.5504,-1.5504,-1.5517,-1.551,-1.5463,-1.5456,-1.5449,-1.5445,-1.5518,-1.5518,-1.5558,-1.5559,-1.5559]},{"header":{"parameterUnit":"m.s-1","parameterCategory":1,"la1":30.2991,"la2":30.254,"lo1":-89.0895,"lo2":-89.0444,"dy":0.0017,"dx":0.0017,"nx":28,"ny":28,"refTime":"2025-07-06T09:00:00:Z","depth":0,"parameterNumber":3,"parameterNumberName":"V-component_of_WINDS"},"data":[0,0,0,0,0,0,0,0,0,0,0,0,0,0,0,0,0,0,0,0,0,0,0,0,0,0,0,0,0,0,0,0,0,0,0,0,0,0,0,0,0,0,0,0,0,0,0,0,0,0,0,0,0,0,0,0,0,0,-1.4946,-1.4947,0,-1.5042,-1.5043,-1.5044,-1.5079,-1.5078,-1.5078,-1.5078,-1.5174,-1.5177,-1.518,0,0,0,0,0,0,0,0,0,0,0,0,0,-1.479,-1.4792,-1.4946,-1.4947,-1.4948,-1.5042,-1.5043,-1.5044,-1.5079,-1.5078,-1.5078,-1.5077,-1.5173,-1.5177,-1.518,0,0,0,0,0,0,0,0,0,0,0,0,0,-1.4869,-1.4793,-1.4945,-1.4976,-1.498,-1.5042,-1.5043,-1.5045,-1.5079,-1.5078,-1.5078,-1.5077,-1.5172,-1.5176,-1.5181,-1.5218,0,0,-1.5194,-1.5196,0,0,0,0,0,0,0,0,-1.4864,-1.4874,-1.4971,-1.4974,-1.4979,-1.5048,-1.5024,-1.5103,-1.5079,-1.5041,-1.5077,-1.5077,-1.5132,-1.514,-1.5159,-1.5222,-1.5226,-1.5194,-1.5197,-1.5199,-1.52,0,0,0,0,0,0,0,-1.4859,-1.487,-1.4984,-1.4972,-1.4977,-1.4985,-1.4996,-1.5039,-1.5088,-1.5044,-1.5047,-1.5058,-1.5135,-1.5155,-1.5162,-1.5228,-1.5194,-1.5198,-1.5201,-1.5202,-1.5326,-1.5327,0,0,0,0,0,0,-1.4848,-1.4866,-1.4981,-1.4987,-1.4919,-1.4988,-1.5,-1.5026,-1.5088,-1.5097,-1.5059,-1.5059,-1.5148,-1.5157,-1.5165,-1.5213,-1.5199,-1.5203,-1.5205,-1.5325,-1.5326,-1.5327,0,0,0,0,0,0,-1.4845,-1.4858,-1.4977,-1.4927,-1.4943,-1.4991,-1.502,-1.5028,-1.5049,-1.5099,-1.5108,-1.507,-1.5148,-1.5159,-1.5205,-1.5216,-1.5205,-1.5209,-1.5324,-1.5325,-1.5326,-1.5307,0,0,0,0,0,0,-1.484,-1.4857,-1.4872,-1.4927,-1.4945,-1.5015,-1.5021,-1.5031,-1.5056,-1.5058,-1.5112,-1.5121,-1.5148,-1.5198,-1.5209,-1.5222,-1.5212,-1.5324,-1.5325,-1.5326,-1.5307,-1.5307,-1.5308,0,0,0,0,0,-1.4834,-1.4862,-1.4872,-1.4886,-1.4965,-1.5016,-1.5026,-1.5058,-1.5057,-1.5072,-1.5104,-1.5119,-1.5213,-1.5202,-1.5215,-1.523,-1.5323,-1.5325,-1.5326,-1.5307,-1.5307,-1.5308,0,0,0,0,0,0,-1.4806,-1.487,-1.4882,-1.4928,-1.4966,-1.5021,-1.5041,-1.5057,-1.5096,-1.5096,-1.5133,-1.5145,-1.5187,-1.5213,-1.5199,-1.5269,-1.5269,-1.5273,-1.525,-1.5251,-1.5251,-1.5244,-1.5216,0,0,0,0,0,-1.4806,-1.4842,-1.4895,-1.4931,-1.495,-1.4992,-1.5015,-1.5037,-1.5077,-1.5093,-1.5129,-1.5167,-1.5205,-1.523,-1.5268,-1.5311,-1.5323,-1.5327,-1.5328,-1.5328,-1.5331,-1.5355,-1.5358,-1.5332,-1.5332,-1.5332,0,0,-1.4804,-1.4843,-1.4864,-1.4926,-1.4958,-1.4994,-1.5005,-1.5043,-1.507,-1.5099,-1.5144,-1.5171,-1.5216,-1.5261,-1.5282,-1.5284,-1.5341,-1.533,-1.533,-1.5333,-1.5357,-1.536,-1.5362,-1.5333,-1.5333,-1.5332,0,0,-1.482,-1.4854,-1.4887,-1.4919,-1.4968,-1.4996,-1.5004,-1.5056,-1.5076,-1.5122,-1.5144,-1.5176,-1.5242,-1.5273,-1.5297,-1.5325,-1.534,-1.5336,-1.5338,-1.5362,-1.5364,-1.5366,-1.5375,-1.5378,-1.5339,-1.5339,-1.5339,0,-1.4812,-1.4868,-1.4902,-1.4939,-1.4966,-1.4994,-1.5028,-1.5057,-1.5115,-1.5132,-1.5133,-1.5216,-1.5248,-1.53,-1.5307,-1.5326,-1.5336,-1.533,-1.5361,-1.5363,-1.5366,-1.5375,-1.5379,-1.5339,-1.5339,-1.5339,-1.5339,0,-1.4856,-1.4894,-1.4915,-1.4971,-1.5,-1.5035,-1.5074,-1.5099,-1.5118,-1.5146,-1.5192,-1.5232,-1.5279,-1.5293,-1.5311,-1.5347,-1.5347,-1.5354,-1.5355,-1.5367,-1.5376,-1.538,-1.5337,-1.5338,-1.5338,-1.5338,0,0,-1.4856,-1.4931,-1.4938,-1.4964,-1.5019,-1.5049,-1.5085,-1.5132,-1.5152,-1.5191,-1.5222,-1.5277,-1.5284,-1.5312,-1.5334,-1.5354,-1.5373,-1.5359,-1.5361,-1.536,-1.5415,-1.5409,-1.5413,-1.5384,-1.5384,-1.5385,-1.5411,0,-1.4879,-1.4946,-1.4978,-1.503,-1.5065,-1.5093,-1.5124,-1.5161,-1.5188,-1.5222,-1.5251,-1.5289,-1.5296,-1.5313,-1.5335,-1.5366,-1.5385,-1.5365,-1.5412,-1.5413,-1.5399,-1.5418,-1.5412,-1.5434,-1.5415,-1.5416,-1.5416,0,-1.4915,-1.4954,-1.501,-1.5062,-1.5078,-1.5105,-1.515,-1.5182,-1.5225,-1.5243,-1.5274,-1.5295,-1.5334,-1.5332,-1.5385,-1.5371,-1.5392,-1.5411,-1.5412,-1.5418,-1.5415,-1.5423,-1.5442,-1.5445,-1.5423,-1.5422,-1.5422,0,-1.4909,-1.4976,-1.5018,-1.504,-1.51,-1.5119,-1.5145,-1.5188,-1.5213,-1.5252,-1.5269,-1.5312,-1.5335,-1.5367,-1.5399,-1.5395,-1.5449,-1.545,-1.5465,-1.5464,-1.5474,-1.5473,-1.5497,-1.5488,-1.5488,-1.5488,-1.5488,0,-1.4931,-1.4964,-1.5017,-1.5042,-1.508,-1.5116,-1.5152,-1.518,-1.5217,-1.5249,-1.5275,-1.5303,-1.5345,-1.5378,-1.5404,-1.5444,-1.5454,-1.5469,-1.5475,-1.5467,-1.5465,-1.5481,-1.548,-1.5489,-1.5489,-1.5489,-1.5489,0,-1.4931,-1.4967,-1.5015,-1.5069,-1.5083,-1.5109,-1.5155,-1.518,-1.5209,-1.5248,-1.5259,-1.5303,-1.5345,-1.538,-1.5434,-1.5451,-1.5492,-1.55,-1.5478,-1.5481,-1.5493,-1.5491,-1.5527,-1.5534,-1.5521,-1.5521,-1.5521,0,-1.4942,-1.4968,-1.5025,-1.5048,-1.5074,-1.5111,-1.5138,-1.5174,-1.52,-1.5251,-1.527,-1.5313,-1.535,-1.5414,-1.545,-1.5492,-1.5501,-1.551,-1.5507,-1.5497,-1.55,-1.5498,-1.5501,-1.551,-1.551,-1.551,-1.551,0,-1.4958,-1.4975,-1.5013,-1.5057,-1.5088,-1.5124,-1.516,-1.5178,-1.5221,-1.5249,-1.5292,-1.532,-1.5375,-1.5417,-1.5463,-1.5489,-1.5507,-1.5511,-1.5516,-1.5507,-1.5493,-1.5501,-1.5477,-1.551,-1.551,-1.551,-1.551,-1.551,-1.4964,-1.4988,-1.5032,-1.5073,-1.5105,-1.5139,-1.5166,-1.5197,-1.5234,-1.5282,-1.5301,-1.5345,-1.5386,-1.5449,-1.5475,-1.5509,-1.5512,-1.552,-1.5522,-1.5523,-1.5522,-1.5488,-1.5518,-1.5518,-1.5518,-1.5518,-1.5518,0,-1.4981,-1.5011,-1.5048,-1.5099,-1.5131,-1.5146,-1.5187,-1.5213,-1.5251,-1.5288,-1.5324,-1.5372,-1.5414,-1.5453,-1.5496,-1.5516,-1.5525,-1.5526,-1.5525,-1.553,-1.5517,-1.5508,-1.5518,-1.5518,-1.5518,-1.5518,-1.5518,-1.5518,-1.4994,-1.5036,-1.5058,-1.5116,-1.5145,-1.5188,-1.5211,-1.5242,-1.5272,-1.5326,-1.536,-1.5386,-1.5425,-1.5471,-1.5509,-1.5519,-1.5534,-1.5532,-1.5545,-1.5532,-1.5531,-1.5531,-1.5522,-1.5535,-1.5535,-1.5556,-1.5556,-1.5556]}]]